Jackson, MS

10:47 PM CDT on July 23, 2017 (GMT -0500)
Jackson-Evers International

Weather History for KJAN - October, 2014

Change the Weather History Date:

Wednesday, October 1, 2014

  Actual Average Record
Temperature  
Mean Temperature 78 °F 70 °F  
Max Temperature 90 °F 82 °F 97 °F (1911)
Min Temperature 65 °F 59 °F 36 °F (1984)
Degree Days  
Heating Degree Days 0 1  
Month to date heating degree days 0 1  
Since 1 July heating degree days 0 8  
Cooling Degree Days 13 6  
Month to date cooling degree days 13 6  
Year to date cooling degree days 2142 2132  
Growing Degree Days 28 (Base 50)    
Moisture  
Dew Point 67 °F    
Average Humidity 69    
Maximum Humidity 93    
Minimum Humidity 44    
Precipitation  
Precipitation 0.00 in 0.12 in 4.04 in (1905)
Month to date precipitation 0.00 0.12  
Year to date precipitation 45.40 40.43  
Sea Level Pressure  
Sea Level Pressure 29.91 in    
Wind  
Wind Speed 6 mph (SSE)    
Max Wind Speed 14 mph    
Max Gust Speed 19 mph    
Visibility 9 miles    
Events      
T = Trace of Precipitation, MM = Missing Value Source: NWS Daily Summary

Daily Weather History Graph

Daily Weather History Graph

Search for Another Location

Airport or City:

Trip Planner

Search our weather history database for the weather conditions in past years. The results will help you decide how hot, cold, wet, or windy it might be!

Date:

Astronomy

Oct. 01, 2014 Rise Set
Actual Time 6:54 AM CDT 6:45 PM CDT
Civil Twilight 6:29 AM CDT 7:09 PM CDT
Nautical Twilight 6:01 AM CDT 7:37 PM CDT
Astronomical Twilight 5:32 AM CDT 8:06 PM CDT
Moon 1:41 PM CDT (10/1) No Moon Set
Length of Visible Light 12h 39m
Length of Day
11h 50m
Waxing Crescent, 49% of the Moon is Illuminated
Oct 1
Waxing Crescent
Oct 1
First Quarter
Oct 8
Full
Oct 15
Last Quarter
Oct 23
New

Hourly Weather History & Observations

Time (CDT) Temp. Heat Index Dew Point Humidity Pressure Visibility Wind Dir Wind Speed Gust Speed Precip Events Conditions
12:54 AM 69.1 °F - 66.0 °F 90% 29.88 in 10.0 mi Calm Calm - N/A   Clear
1:54 AM 68.0 °F - 66.0 °F 93% 29.88 in 10.0 mi Calm Calm - N/A   Clear
2:54 AM 66.0 °F - 64.0 °F 93% 29.88 in 10.0 mi Calm Calm - N/A   Clear
3:54 AM 68.0 °F - 66.2 °F 94% 29.90 in 10.0 mi Calm Calm - N/A   Clear
4:41 AM 66.9 °F - 66.0 °F 97% 29.91 in 9.0 mi South 3.5 mph - N/A   Partly Cloudy
4:54 AM 69.1 °F - 66.9 °F 93% 29.90 in 8.0 mi Calm Calm - N/A   Partly Cloudy
5:15 AM 69.1 °F - 66.9 °F 93% 29.92 in 7.0 mi South 3.5 mph - N/A   Scattered Clouds
5:24 AM 70.0 °F - 68.0 °F 93% 29.92 in 7.0 mi South 4.6 mph - N/A   Mostly Cloudy
5:32 AM 70.0 °F - 68.0 °F 93% 29.91 in 7.0 mi South 3.5 mph - N/A   Mostly Cloudy
5:54 AM 71.1 °F - 69.1 °F 93% 29.90 in 5.0 mi SE 5.8 mph - N/A   Overcast
6:54 AM 71.1 °F - 69.1 °F 93% 29.91 in 3.0 mi SE 4.6 mph - N/A   Overcast
7:50 AM 71.6 °F - 69.8 °F 94% 29.94 in 1.5 mi SSE 3.5 mph - N/A   Overcast
7:54 AM 71.1 °F - 70.0 °F 96% 29.93 in 1.5 mi SSE 4.6 mph - N/A   Overcast
8:54 AM 73.0 °F - 71.1 °F 93% 29.94 in 5.0 mi South 6.9 mph - N/A   Overcast
9:51 AM 75.2 °F - 69.8 °F 83% 29.96 in 8.0 mi SSE 6.9 mph - N/A   Overcast
9:54 AM 75.9 °F - 71.1 °F 85% 29.95 in 8.0 mi SSE 5.8 mph - N/A   Overcast
10:21 AM 79.0 °F - 70.0 °F 74% 29.97 in 10.0 mi SSE 8.1 mph - N/A   Mostly Cloudy
10:54 AM 81.0 °F 84.1 °F 69.1 °F 67% 29.96 in 10.0 mi SSE 9.2 mph - N/A   Mostly Cloudy
11:54 AM 84.9 °F 87.6 °F 66.9 °F 55% 29.95 in 10.0 mi SSE 9.2 mph 17.3 mph N/A   Scattered Clouds
12:54 PM 84.9 °F 86.6 °F 64.9 °F 51% 29.90 in 10.0 mi Variable 3.5 mph - N/A   Mostly Cloudy
1:54 PM 87.1 °F 88.9 °F 64.9 °F 48% 29.89 in 10.0 mi SE 10.4 mph - N/A   Scattered Clouds
2:54 PM 89.1 °F 90.3 °F 64.0 °F 43% 29.88 in 10.0 mi South 9.2 mph - N/A   Mostly Cloudy
3:54 PM 90.0 °F 91.3 °F 64.0 °F 42% 29.86 in 10.0 mi SSE 10.4 mph - N/A   Scattered Clouds
4:54 PM 87.1 °F 89.2 °F 66.0 °F 49% 29.86 in 10.0 mi SSE 8.1 mph - N/A   Scattered Clouds
5:54 PM 86.0 °F 88.2 °F 66.0 °F 51% 29.87 in 10.0 mi SE 5.8 mph - N/A   Scattered Clouds
6:54 PM 82.0 °F 84.5 °F 66.9 °F 60% 29.88 in 10.0 mi SE 8.1 mph - N/A   Partly Cloudy
7:54 PM 77.0 °F - 68.0 °F 74% 29.89 in 10.0 mi SE 6.9 mph - N/A   Partly Cloudy
8:54 PM 75.9 °F - 68.0 °F 76% 29.92 in 10.0 mi SSE 6.9 mph - N/A   Clear
9:54 PM 75.9 °F - 68.0 °F 76% 29.93 in 10.0 mi SSE 8.1 mph - N/A   Clear
10:54 PM 73.9 °F - 69.1 °F 85% 29.92 in 10.0 mi SSE 6.9 mph - N/A   Clear
11:54 PM 75.0 °F - 70.0 °F 84% 29.93 in 10.0 mi South 8.1 mph - N/A   Clear